Weather History for KPSX - November, 2011

Change the Weather History Date:

Sunday, November 20, 2011

  Actual Average Record
Temperature  
Mean Temperature 76 °F -  
Max Temperature 82 °F - - ()
Min Temperature 71 °F - - ()
Cooling Degree Days 12    
Growing Degree Days 26 (Base 50)    
Moisture  
Dew Point 73 °F    
Average Humidity 91    
Maximum Humidity 100    
Minimum Humidity 74    
Precipitation  
Precipitation 0.00 in - - ()
Sea Level Pressure  
Sea Level Pressure 30.04 in    
Wind  
Wind Speed 11 mph (SE)    
Max Wind Speed 20 mph    
Max Gust Speed 24 mph    
Visibility 9 miles    
Events      
T = Trace of Precipitation, MM = Missing Value Source: NWS Daily Summary

Daily Weather History Graph

Daily Weather History Graph

Search for Another Location

Airport or City:

Trip Planner

Search our weather history database for the weather conditions in past years. The results will help you decide how hot, cold, wet, or windy it might be!

Date:

Astronomy

Nov. 20, 2011 Rise Set
Actual Time 6:51 AM CST 5:29 PM CST
Civil Twilight 6:26 AM CST 5:54 PM CST
Nautical Twilight 5:57 AM CST 6:23 PM CST
Astronomical Twilight 5:29 AM CST 6:51 PM CST
Moon 1:44 AM CST (11/20) 1:59 PM CST (11/20)
Length of Visible Light 11h 28m
Length of Day
10h 37m
Waning Crescent, 27% of the Moon is Illuminated
Nov 20
Waning Crescent
Nov 25
New
Dec 2
First Quarter
Dec 10
Full
Dec 17
Last Quarter

Hourly Weather History & Observations

Time (CST) Temp. Heat Index Dew Point Humidity Pressure Visibility Wind Dir Wind Speed Gust Speed Precip Events Conditions
12:53 AM 73.9 °F - 73.0 °F 97% 29.99 in 9.0 mi SSE 12.7 mph - N/A   Mostly Cloudy
1:53 AM 73.0 °F - 73.0 °F 100% 29.99 in 9.0 mi SSE 10.4 mph - N/A   Scattered Clouds
2:53 AM 73.0 °F - 73.0 °F 100% 29.99 in 8.0 mi SSE 10.4 mph - N/A   Mostly Cloudy
3:21 AM 71.6 °F - 71.6 °F 100% 30.00 in 7.0 mi SSE 6.9 mph - N/A   Mostly Cloudy
3:53 AM 72.0 °F - 72.0 °F 100% 30.00 in 7.0 mi SSE 8.1 mph - N/A   Scattered Clouds
4:17 AM 71.6 °F - 71.6 °F 100% 30.00 in 7.0 mi SSE 6.9 mph - N/A   Mostly Cloudy
4:53 AM 72.0 °F - 72.0 °F 100% 30.00 in 7.0 mi SE 6.9 mph - N/A   Overcast
5:15 AM 71.6 °F - 71.6 °F 100% 30.01 in 7.0 mi SE 6.9 mph - N/A   Overcast
5:45 AM 73.4 °F - 73.4 °F 100% 30.01 in 7.0 mi SE 9.2 mph - N/A   Overcast
5:53 AM 73.0 °F - 73.0 °F 100% 30.01 in 8.0 mi SE 9.2 mph - N/A   Overcast
6:53 AM 71.6 °F - 71.6 °F 100% 30.03 in 6.0 mi SE 6.9 mph - N/A   Clear
7:53 AM 73.0 °F - 73.0 °F 100% 30.05 in 8.0 mi SE 11.5 mph - N/A   Clear
8:53 AM 77.0 °F - 73.0 °F 88% 30.07 in 10.0 mi SSE 12.7 mph - N/A   Clear
9:53 AM 80.6 °F 85.4 °F 73.4 °F 79% 30.09 in 10.0 mi South 16.1 mph 23.0 mph N/A   Clear
10:53 AM 81.0 °F 85.8 °F 73.0 °F 77% 30.10 in 10.0 mi SSE 17.3 mph - N/A   Clear
11:53 AM 82.4 °F 88.2 °F 73.4 °F 74% 30.08 in 10.0 mi SSE 19.6 mph 24.2 mph N/A   Clear
12:53 PM 81.0 °F 85.8 °F 73.0 °F 77% 30.05 in 10.0 mi South 18.4 mph 24.2 mph N/A   Clear
1:53 PM 81.0 °F 85.8 °F 73.0 °F 77% 30.04 in 10.0 mi SSE 17.3 mph 23.0 mph N/A   Clear
2:53 PM 80.1 °F 84.2 °F 73.0 °F 79% 30.03 in 10.0 mi SSE 16.1 mph - N/A   Mostly Cloudy
3:03 PM 80.6 °F 85.4 °F 73.4 °F 79% 30.03 in 10.0 mi SSE 16.1 mph 21.9 mph N/A   Mostly Cloudy
3:14 PM 80.6 °F 85.4 °F 73.4 °F 79% 30.03 in 10.0 mi SSE 12.7 mph - N/A   Mostly Cloudy
3:46 PM 80.6 °F 85.4 °F 73.4 °F 79% 30.03 in 10.0 mi SSE 13.8 mph - N/A   Overcast
3:53 PM 81.0 °F 85.8 °F 73.0 °F 77% 30.03 in 10.0 mi SSE 12.7 mph - N/A   Overcast
4:15 PM 80.6 °F 85.4 °F 73.4 °F 79% 30.03 in 10.0 mi SSE 13.8 mph - N/A   Mostly Cloudy
4:45 PM 78.8 °F - 73.4 °F 83% 30.04 in 10.0 mi SE 12.7 mph - N/A   Overcast
4:53 PM 78.1 °F - 73.9 °F 87% 30.04 in 10.0 mi SE 13.8 mph - N/A   Overcast
5:53 PM 75.9 °F - 73.9 °F 94% 30.05 in 10.0 mi SE 11.5 mph - N/A   Mostly Cloudy
6:53 PM 75.9 °F - 73.9 °F 94% 30.06 in 10.0 mi ESE 10.4 mph - N/A   Overcast
7:53 PM 75.0 °F - 73.9 °F 96% 30.08 in 10.0 mi SE 11.5 mph - N/A   Overcast
8:53 PM 73.9 °F - 73.0 °F 97% 30.09 in 9.0 mi SE 9.2 mph - N/A   Clear
9:39 PM 73.4 °F - 73.4 °F 100% 30.09 in 8.0 mi SE 9.2 mph - N/A   Mostly Cloudy
9:53 PM 73.9 °F - 73.9 °F 100% 30.09 in 8.0 mi SE 9.2 mph - N/A   Overcast
10:53 PM 73.9 °F - 73.9 °F 100% 30.09 in 8.0 mi SE 11.5 mph - N/A   Mostly Cloudy
11:53 PM 73.9 °F - 73.9 °F 100% 30.08 in 7.0 mi SE 10.4 mph - N/A   Overcast